AV751 Weather Reports


time (UTC)temp
C
wind
direction
speed
KPH
gust
KPH
rain 1hr
cm
rain 24hr
cm
rain mn
cm
humidity
%
barometer
mb
20260508070504 12 119 3.2 6.4 0.00 0.00 0.00 73 997.6
20260508070005 12 128 1.6 6.4 0.00 0.00 0.00 73 997.7
20260508065714 12 137 3.2 6.4 0.00 0.00 0.00 73 997.7
20260508065004 12 156 0.0 4.8 0.00 0.00 0.00 77 997.7
20260508064504 12 135 3.2 4.8 0.00 0.00 0.00 78 997.6
20260508064004 12 138 3.2 4.8 0.00 0.00 0.00 80 997.7
20260508063504 11 135 1.6 3.2 0.00 0.00 0.00 81 997.6
20260508063214 11 135 0.0 1.6 0.00 0.00 0.00 82 997.5
20260508062504 11 0 0.0 0.0 0.00 0.00 0.00 82 997.5
20260508062004 11 0 0.0 0.0 0.00 0.00 0.00 83 997.5
20260508061718 11 0 0.0 0.0 0.00 0.00 0.00 83 997.4
20260508061004 11 0 0.0 0.0 0.00 0.00 0.00 83 997.3
20260508060504 11 0 0.0 0.0 0.00 0.00 0.00 83 997.5
20260508060005 11 0 0.0 0.0 0.00 0.00 0.00 83 997.4
20260508055504 11 270 0.0 1.6 0.00 0.00 0.00 83 997.3
20260508055004 10 270 0.0 1.6 0.00 0.00 0.00 83 997.2
20260508054716 10 0 0.0 0.0 0.00 0.00 0.00 83 997.3
20260508054004 10 0 0.0 0.0 0.00 0.00 0.00 82 997.3
20260508053717 10 0 0.0 0.0 0.00 0.00 0.00 82 997.3
20260508053004 10 135 0.0 1.6 0.00 0.00 0.00 82 997.3
20260508052504 10 135 0.0 1.6 0.00 0.00 0.00 82 997.3
20260508052004 10 135 0.0 1.6 0.00 0.00 0.00 82 997.3
20260508051504 10 0 0.0 0.0 0.00 0.00 0.00 82 997.2
20260508051004 10 180 0.0 1.6 0.00 0.00 0.00 82 997.3
20260508050504 10 135 0.0 1.6 0.00 0.00 0.00 82 997.0
20260508050218 10 134 0.0 1.6 0.00 0.00 0.00 83 997.1
20260508045504 10 135 0.0 3.2 0.00 0.00 0.00 83 996.9
20260508045004 10 135 0.0 3.2 0.00 0.00 0.00 83 997.2
20260508044504 10 135 0.0 3.2 0.00 0.00 0.00 84 997.1
20260508044004 10 138 0.0 4.8 0.00 0.00 0.00 84 997.0
20260508043504 10 141 1.6 4.8 0.00 0.00 0.00 83 997.0
20260508043004 10 180 0.0 1.6 0.00 0.00 0.00 83 996.9
20260508042718 10 0 0.0 0.0 0.00 0.00 0.00 83 997.0
20260508042004 10 0 0.0 0.0 0.00 0.00 0.00 83 997.1
20260508041714 10 0 0.0 0.0 0.00 0.00 0.00 83 997.0
20260508041004 10 0 0.0 0.0 0.00 0.00 0.00 83 996.7
20260508040504 10 0 0.0 0.0 0.00 0.00 0.00 83 996.6
20260508040005 10 0 0.0 0.0 0.00 0.00 0.00 83 997.0
20260508035716 10 0 0.0 0.0 0.00 0.00 0.00 83 996.7
20260508035004 10 0 0.0 0.0 0.00 0.00 0.00 82 996.9
20260508034504 10 0 0.0 0.0 0.00 0.00 0.00 82 996.4
20260508034004 10 0 0.0 0.0 0.00 0.00 0.00 82 996.6
20260508033504 10 0 0.0 0.0 0.00 0.00 0.00 82 996.5
20260508033004 10 0 0.0 0.0 0.00 0.00 0.00 82 996.6
20260508032504 10 0 0.0 0.0 0.00 0.00 0.00 81 996.6
20260508032004 10 0 0.0 0.0 0.00 0.00 0.00 81 996.7
20260508031504 10 0 0.0 0.0 0.00 0.00 0.00 81 996.7
20260508031004 10 0 0.0 0.0 0.00 0.00 0.00 81 996.8
20260508030504 10 0 0.0 0.0 0.00 0.00 0.00 80 996.7
20260508030004 10 0 0.0 0.0 0.00 0.00 0.00 80 996.8
20260508025504 10 0 0.0 0.0 0.00 0.00 0.00 80 996.8
20260508025004 10 0 0.0 0.0 0.00 0.00 0.00 80 996.9
20260508024717 10 0 0.0 0.0 0.00 0.00 0.00 79 996.9
20260508024004 10 0 0.0 0.0 0.00 0.00 0.00 78 996.9
20260508023504 10 0 0.0 0.0 0.00 0.00 0.00 78 996.8
20260508023004 10 0 0.0 0.0 0.00 0.00 0.00 77 996.8
20260508022504 10 0 0.0 0.0 0.00 0.00 0.00 77 996.7
20260508022004 11 0 0.0 0.0 0.00 0.00 0.00 77 996.7
20260508021504 11 180 0.0 1.6 0.00 0.00 0.00 77 996.7
20260508021004 11 180 0.0 1.6 0.00 0.00 0.00 76 996.4
20260508020716 11 175 0.0 1.6 0.00 0.00 0.00 76 996.8
20260508020004 11 144 0.0 4.8 0.00 0.00 0.00 76 996.6
20260508015504 11 138 1.6 4.8 0.00 0.00 0.00 77 996.6
20260508015004 11 148 1.6 3.2 0.00 0.00 0.00 76 996.6
20260508014504 11 151 1.6 3.2 0.00 0.00 0.00 76 996.5
20260508014216 11 147 0.0 3.2 0.00 0.00 0.00 76 996.8
20260508013504 11 143 1.6 3.2 0.00 0.00 0.00 76 996.5
20260508013004 11 146 1.6 4.8 0.00 0.00 0.00 76 996.7
20260508012504 11 143 3.2 4.8 0.00 0.00 0.00 76 996.7
20260508012004 11 155 1.6 4.8 0.00 0.00 0.00 75 996.6
20260508011504 11 161 0.0 4.8 0.00 0.00 0.00 75 996.5
20260508011004 11 141 1.6 3.2 0.00 0.00 0.00 75 996.6
20260508010504 11 139 0.0 3.2 0.00 0.00 0.00 75 996.5
20260508010004 11 141 1.6 4.8 0.00 0.00 0.00 74 996.5
20260508005504 11 147 0.0 6.4 0.00 0.00 0.00 74 996.5
20260508005004 11 147 3.2 6.4 0.00 0.00 0.00 74 996.5
20260508004504 11 140 1.6 6.4 0.00 0.00 0.00 74 996.6
20260508004004 11 139 0.0 6.4 0.00 0.00 0.00 74 996.6
20260508003504 11 131 3.2 6.4 0.00 0.00 0.00 73 996.6
20260508003005 11 124 0.0 4.8 0.00 0.00 0.00 73 996.5
20260508002504 11 136 0.0 3.2 0.00 0.00 0.00 73 996.7
20260508002004 11 145 1.6 4.8 0.00 0.00 0.00 73 996.7
20260508001504 11 143 0.0 6.4 0.00 0.00 0.00 73 996.7
20260508001215 11 141 1.6 6.4 0.00 0.00 0.00 73 996.7
20260508000504 11 132 3.2 6.4 0.00 0.00 0.00 73 996.5
20260508000216 11 129 3.2 4.8 0.00 0.00 0.00 73 996.9
20260507235504 11 138 3.2 6.4 0.00 0.00 0.00 73 997.0
20260507235004 11 137 3.2 6.4 0.00 0.00 0.00 73 996.7
20260507234715 11 135 3.2 6.4 0.00 0.00 0.00 73 996.8
20260507234004 11 142 1.6 6.4 0.00 0.00 0.00 73 997.0
20260507233504 11 140 3.2 6.4 0.00 0.00 0.00 73 996.9
20260507233004 11 144 3.2 6.4 0.00 0.00 0.00 73 997.0
20260507232504 11 154 3.2 4.8 0.00 0.00 0.00 73 996.9
20260507232004 11 142 3.2 6.4 0.00 0.00 0.00 73 996.7
20260507231504 11 137 1.6 6.4 0.00 0.00 0.00 73 996.7
20260507231004 11 136 0.0 6.4 0.00 0.00 0.00 73 996.6
20260507230718 11 134 3.2 6.4 0.00 0.00 0.00 73 996.6
20260507230006 11 143 3.2 6.4 0.00 0.00 0.00 73 996.7
20260507225504 11 133 3.2 6.4 0.00 0.00 0.00 73 996.5
20260507225004 12 133 3.2 6.4 0.00 0.00 0.00 73 996.7
20260507224504 12 141 3.2 4.8 0.00 0.00 0.00 73 996.8
20260507224004 12 132 3.2 4.8 0.00 0.00 0.00 73 996.8
20260507223504 12 136 1.6 4.8 0.00 0.00 0.00 72 996.9
20260507223214 12 131 3.2 4.8 0.00 0.00 0.00 72 996.8
20260507222717 12 139 1.6 4.8 0.00 0.00 0.00 72 996.8
20260507222004 12 139 1.6 3.2 0.00 0.00 0.00 71 996.8
20260507221504 12 148 1.6 6.4 0.00 0.00 0.00 70 996.9
20260507221004 12 139 3.2 6.4 0.00 0.00 0.00 70 996.8
20260507220714 12 138 6.4 6.4 0.00 0.00 0.00 70 996.8
20260507220004 12 140 6.4 6.4 0.00 0.00 0.00 70 996.6
20260507215504 12 139 3.2 9.7 0.00 0.00 0.00 70 996.5
20260507215004 12 142 3.2 9.7 0.00 0.00 0.00 65 996.7
20260507214504 12 141 6.4 8.0 0.00 0.00 0.00 65 996.5
20260507214004 12 133 4.8 12.9 0.00 0.00 0.00 65 996.6
20260507213504 12 138 3.2 12.9 0.00 0.00 0.00 64 996.5
20260507213004 12 144 4.8 9.7 0.00 0.00 0.00 64 996.5
20260507212504 12 143 6.4 9.7 0.00 0.00 0.00 64 996.5
20260507212004 12 154 6.4 6.4 0.00 0.00 0.00 63 996.6
20260507211504 12 156 3.2 6.4 0.00 0.00 0.00 63 996.6
20260507211004 12 143 4.8 6.4 0.00 0.00 0.00 63 996.4
20260507210504 12 142 3.2 8.0 0.00 0.00 0.00 62 996.4
20260507210005 12 139 1.6 8.0 0.00 0.00 0.00 62 996.5
20260507205715 12 141 4.8 8.0 0.00 0.00 0.00 62 996.3
20260507205004 13 142 4.8 8.0 0.00 0.00 0.00 61 996.4
20260507204716 13 139 6.4 8.0 0.00 0.00 0.00 61 996.1
20260507204004 13 141 3.2 9.7 0.00 0.00 0.00 61 996.1
20260507203504 13 137 6.4 9.7 0.00 0.00 0.00 60 996.1
20260507203004 13 126 3.2 8.0 0.00 0.00 0.00 60 996.0
20260507202504 13 123 1.6 6.4 0.00 0.00 0.00 60 996.0
20260507202004 13 144 3.2 6.4 0.00 0.00 0.00 59 996.0
20260507201504 13 153 3.2 6.4 0.00 0.00 0.00 59 995.7
20260507201004 13 147 4.8 8.0 0.00 0.00 0.00 58 995.9
20260507200504 13 117 4.8 9.7 0.00 0.00 0.00 58 995.7
20260507200005 13 121 3.2 11.3 0.00 0.00 0.00 58 995.8
20260507195716 13 135 4.8 11.3 0.00 0.00 0.00 58 995.6
20260507195004 13 125 3.2 6.4 0.00 0.00 0.00 57 995.7
20260507194504 13 133 1.6 9.7 0.00 0.00 0.00 57 995.5
20260507194004 13 140 3.2 9.7 0.00 0.00 0.00 56 995.6
20260507193718 13 149 6.4 9.7 0.00 0.00 0.00 56 995.5
20260507193004 13 146 3.2 6.4 0.00 0.00 0.00 56 995.4
20260507192504 13 149 3.2 11.3 0.00 0.00 0.00 55 995.5
20260507192005 13 152 1.6 11.3 0.00 0.00 0.00 54 995.4
20260507191504 13 141 4.8 8.0 0.00 0.00 0.00 54 995.3
20260507191004 14 141 3.2 12.9 0.00 0.00 0.00 53 995.4
20260507190504 14 129 6.4 12.9 0.00 0.00 0.00 53 995.3
20260507190005 14 127 3.2 9.7 0.00 0.00 0.00 52 995.4
20260507185504 14 126 3.2 11.3 0.00 0.00 0.00 52 995.4
20260507185004 14 110 4.8 11.3 0.00 0.00 0.00 51 995.4
20260507154504 17 104 3.2 11.3 0.00 0.00 0.00 41 994.4
20260507154004 17 81 6.4 9.7 0.00 0.00 0.00 41 994.7
20260507153504 17 85 3.2 9.7 0.00 0.00 0.00 41 994.4
20260507153004 16 103 4.8 8.0 0.00 0.00 0.00 44 994.7
20260507152504 16 112 3.2 8.0 0.00 0.00 0.00 45 994.8
20260507152004 16 122 4.8 12.9 0.00 0.00 0.00 44 995.1
20260507151504 16 115 4.8 12.9 0.00 0.00 0.00 42 995.1
20260507151004 17 100 3.2 8.0 0.00 0.00 0.00 42 995.1
20260507150504 16 124 4.8 11.3 0.00 0.00 0.00 42 995.4
20260507150005 16 142 4.8 11.3 0.00 0.00 0.00 42 995.3
20260507145504 15 160 3.2 6.4 0.00 0.00 0.00 43 995.4
20260507145004 15 170 3.2 6.4 0.00 0.00 0.00 43 995.5
20260507144504 15 161 3.2 6.4 0.00 0.00 0.00 43 995.5
20260507144218 15 157 3.2 6.4 0.00 0.00 0.00 43 995.4
20260507143504 15 142 1.6 6.4 0.00 0.00 0.00 44 995.3
20260507143004 15 163 3.2 6.4 0.00 0.00 0.00 43 995.5
20260507142504 15 166 1.6 8.0 0.00 0.00 0.00 44 995.4
20260507142004 15 147 0.0 8.0 0.00 0.00 0.00 43 995.4
20260507141504 15 134 3.2 6.4 0.00 0.00 0.00 44 995.7
20260507141004 15 135 3.2 6.4 0.00 0.00 0.00 43 995.6
20260507140504 15 126 3.2 8.0 0.00 0.00 0.00 44 995.5
20260507140005 15 143 3.2 8.0 0.00 0.00 0.00 44 995.6
20260507135504 15 144 3.2 6.4 0.00 0.00 0.00 44 995.5
20260507135004 15 136 4.8 9.7 0.00 0.00 0.00 43 995.7
20260507134504 15 136 3.2 9.7 0.00 0.00 0.00 43 995.7
20260507134004 15 136 6.4 11.3 0.00 0.00 0.00 43 995.7
20260507133504 15 135 1.6 11.3 0.00 0.00 0.00 43 995.5
20260507133004 15 142 4.8 9.7 0.00 0.00 0.00 43 995.7
20260507132504 15 144 6.4 12.9 0.00 0.00 0.00 43 995.8
20260507132004 15 141 4.8 12.9 0.00 0.00 0.00 43 995.7
20260507131504 16 137 9.7 12.9 0.00 0.00 0.00 42 995.6
20260507131004 16 140 4.8 12.9 0.00 0.00 0.00 43 995.7
20260507130504 16 146 4.8 11.3 0.00 0.00 0.00 43 995.6
20260507130217 16 142 6.4 12.9 0.00 0.00 0.00 43 995.6
20260507125504 16 126 4.8 12.9 0.00 0.00 0.00 41 995.6
20260507125004 17 128 3.2 12.9 0.00 0.00 0.00 42 995.8
20260507124504 16 133 6.4 12.9 0.00 0.00 0.00 43 995.6
20260507124004 16 136 3.2 9.7 0.00 0.00 0.00 44 995.8
20260507123717 16 137 4.8 9.7 0.00 0.00 0.00 44 995.6
20260507123004 15 134 3.2 11.3 0.00 0.00 0.00 45 995.9
20260507122504 15 137 1.6 12.9 0.00 0.00 0.00 44 995.9
20260507122004 15 122 3.2 12.9 0.00 0.00 0.00 45 995.9
20260507121504 15 142 3.2 12.9 0.00 0.00 0.00 47 996.0
20260507121004 15 150 3.2 12.9 0.00 0.00 0.00 47 995.9
20260507120504 15 137 4.8 12.9 0.00 0.00 0.00 47 995.9
20260507120005 15 130 3.2 12.9 0.00 0.00 0.00 45 996.0
20260507115716 15 123 4.8 12.9 0.00 0.00 0.00 44 995.9
20260507115004 16 110 3.2 12.9 0.00 0.00 0.00 43 996.2
20260507114504 16 107 4.8 12.9 0.00 0.00 0.00 43 996.1
20260507114004 16 127 1.6 11.3 0.00 0.00 0.00 45 996.1
20260507113504 16 143 8.0 11.3 0.00 0.00 0.00 48 996.4
20260507113004 16 147 4.8 11.3 0.00 0.00 0.00 50 996.3
20260507112504 15 145 4.8 11.3 0.00 0.00 0.00 48 996.4
20260507112004 15 144 4.8 12.9 0.00 0.00 0.00 51 996.3
20260507111506 15 127 3.2 12.9 0.00 0.00 0.00 50 996.4
20260507111004 15 98 3.2 11.3 0.00 0.00 0.00 52 996.6
20260507110504 15 123 4.8 11.3 0.00 0.00 0.00 52 996.2
20260507110005 15 118 4.8 12.9 0.00 0.00 0.00 52 996.3
20260507105504 14 112 6.4 12.9 0.00 0.00 0.00 52 996.5
20260507105004 14 131 3.2 12.9 0.00 0.00 0.00 51 996.5
20260507104504 15 136 8.0 12.9 0.00 0.00 0.00 51 996.5
20260507104004 15 142 3.2 9.7 0.00 0.00 0.00 52 996.6
20260507103504 15 141 4.8 9.7 0.00 0.00 0.00 52 996.6
20260507103004 15 107 6.4 9.7 0.00 0.00 0.00 53 996.6
20260507102504 15 118 4.8 9.7 0.00 0.00 0.00 54 996.8
20260507102218 15 125 3.2 9.7 0.00 0.00 0.00 55 996.8
20260507101504 14 145 4.8 9.7 0.00 0.00 0.00 55 996.8
20260507101004 13 146 6.4 9.7 0.00 0.00 0.00 56 996.7
20260507100504 13 127 3.2 12.9 0.00 0.00 0.00 57 996.7
20260507100005 13 108 6.4 12.9 0.00 0.00 0.00 58 996.9
20260507095717 13 90 4.8 6.4 0.00 0.00 0.00 59 996.8
20260507095004 13 142 1.6 9.7 0.00 0.00 0.00 61 996.8
20260507094504 13 137 6.4 9.7 0.00 0.00 0.00 61 996.8
20260507094005 13 139 4.8 9.7 0.00 0.00 0.00 60 996.9
20260507093504 13 142 4.8 12.9 0.00 0.00 0.00 60 997.0
20260507093004 13 147 3.2 12.9 0.00 0.00 0.00 61 996.9
20260507092504 12 127 6.4 11.3 0.00 0.00 0.00 62 997.0
20260507092004 12 117 6.4 11.3 0.00 0.00 0.00 63 997.0
20260507091504 12 132 1.6 8.0 0.00 0.00 0.00 63 996.9
20260507091004 12 140 6.4 8.0 0.00 0.00 0.00 63 997.0
20260507090717 12 142 3.2 8.0 0.00 0.00 0.00 64 997.0
20260507090005 12 133 1.6 9.7 0.00 0.00 0.00 69 997.2
20260507085718 12 137 6.4 9.7 0.00 0.00 0.00 68 997.2
20260507085004 11 137 6.4 12.9 0.00 0.00 0.00 67 997.2
20260507084504 12 133 3.2 6.4 0.00 0.00 0.00 70 997.1
20260507084004 11 128 6.4 9.7 0.00 0.00 0.00 70 997.2
20260507083504 11 134 6.4 12.9 0.00 0.00 0.00 71 997.3
20260507083005 11 145 6.4 12.9 0.00 0.00 0.00 71 997.2
20260507082504 11 144 8.0 12.9 0.00 0.00 0.00 71 997.2
20260507082004 11 143 4.8 12.9 0.00 0.00 0.00 71 997.2
20260507081504 11 141 6.4 12.9 0.00 0.00 0.00 71 997.2
20260507081004 10 141 3.2 12.9 0.00 0.00 0.00 71 997.3
20260507080504 11 139 3.2 6.4 0.00 0.00 0.00 72 997.3
20260507080005 10 126 4.8 6.4 0.00 0.00 0.00 72 997.2
20260507075504 10 142 4.8 8.0 0.00 0.00 0.00 73 997.4
20260507075004 10 145 4.8 8.0 0.00 0.00 0.00 73 997.3
20260507074504 10 134 4.8 8.0 0.00 0.00 0.00 74 997.4
20260507074004 10 135 3.2 6.4 0.00 0.00 0.00 75 997.3
20260507073504 10 133 0.0 6.4 0.00 0.00 0.00 75 997.4
20260507073213 9 133 3.2 6.4 0.00 0.00 0.00 75 997.2
20260507072504 10 145 3.2 6.4 0.00 0.00 0.00 77 997.3
20260507072004 9 163 1.6 4.8 0.00 0.00 0.00 77 997.3
20260507071717 9 174 3.2 4.8 0.00 0.00 0.00 77 997.4
20260507071004 8 149 1.6 4.8 0.00 0.00 0.00 77 997.3